STARLINK-32743, 62480

Orbit data source: Space-Track

STARLINK-32743, 62480 is a payload satellite owned by SpaceX/Seattle (US) in LEO that was launched on Tue, 31 Dec 2024 UTC via an FALCON 9 launch vehicle from the Air Force Eastern Test Range (AFETR). Payloads include a variety of satellites, spacecraft, and rockets equipped with specific instruments for various scientific and technological missions. These include communications satellites like Starlink; space stations such as the ISS; scientific satellites like the Hubble; Earth observation satellites from companies like Planet Labs, Umbra, and HawkEye 360; GPS; miniature CubeSats for education and research; and military/defense satellites.

Loading next visibility...
STARLINK-32743 details
Identifier
62480, 2024-254U
Orbit
LEO
Last TLE update7 hours ago
Origin
Flag of USSpaceX/Seattle (US)
ManufacturerSpaceX/Seattle
MissionOperational spacecraft
Bus & MotorSTARLINK V2M, Unknown motor
Mass730 kg wet, ~700 kg dry
Launch date (UTC)
2024-12-31 (4 weeks ago)
Launch vehicle
FALCON 9
Launch site
Air Force Eastern Test Range (AFETR)
Object type
Payload
Rocket body
Debris
Shape & HBRUnknown
Radar Cross SectionLarge (>1 m²)

Expand to show TLE details & history

TLE from 7 hours ago
0 STARLINK-32743
1 62480U 24254U   25025.58334491 -.01612994  00000-0 -28499-1 0  9995
2 62480  42.9991 166.1538 0001348 274.4992 333.0527 15.52538836  5227
Epoch: 2025-01-25T14:00Z
Definitive object data (Epoch: 2025-01-25T14:00:01Z)
Latitude-39.24133°
Longitude71.59941°
Altitude420.217 km
Speed7.66 km/s
True Right ascension03h 06m 56s
True Declination-39° 03' 52"
Sunlit
Object was in daylight at TLE epoch
Visualization TLE readout
Latitude-19.74197°
Longitude166.92107°
Altitude415.754 km
Speed7.663 km/s
Apparent Right ascension09h 39m 02s
Apparent Declination-29° 23' 14"
Sunlit
Object is in full shadow
Visualization observer readout
Local Sidereal Time21:53:10
Azimuth16.468° NNE
Elevation-79.08°
Doppler factor1
Orbital elements
Apogee altitude412.198 km
Perigee altitude410.368 km
Semi-major axis6,789.42 km
Eccentricity0.0001348
Inclination42.9991°
RAAN166.1538°
Arg. of periapsis274.4992°
True anomaly333.0457°
Mean anomaly333.0527°
Eccentric anomaly333.0492°
Mean motion3.87966 °/min
BSTAR-0.028499
Orbital period92.79 mins
Loading maneuver chart data...
Loading historical data...
Loading historical data...
Loading historical data...
Loading historical data...
Loading historical data...
Loading historical data...
Loading historical data...

STARLINK-32743 Visibility forecast

Observer location: undefined°, undefined

Span
Click to sort rows by Start time (UTC) header in descending order
Start Az.
Max El. time (UTC)
Max El. Az.
Max El.
End time (UTC)
End Az.
5 mins2025-01-26 12:20:03.318Z205.054° SW2025-01-26 12:22:03.318Z152.985° SSE27.494°2025-01-26 12:25:03.318Z86.46° E
4 mins2025-01-26 13:58:03.318Z271.053° WNW2025-01-26 13:59:03.318Z297.497° NW40.299°2025-01-26 14:02:03.318Z68.032° E
5 mins2025-01-26 15:35:03.318Z293.831° NW2025-01-26 15:37:03.318Z350.337° N36.656°2025-01-26 15:40:03.318Z78.321° E
5 mins2025-01-26 17:13:03.318Z282.945° WNW2025-01-26 17:15:03.318Z171.592° S43.663°2025-01-26 17:18:03.318Z116.339° SE
|